Wind_Speed
6 6 6 5 5 5 6 6 7 7 7 7 7 7 7 7 7 7 8 8 9 9 9 9 9 9 9 9 9 10 10 10 11 12 11 9 7 6 5 3 3 3 3 3 3 3 3 3 3 4 4 4 4 3 3 5 6 7 8 8 9 9 9 9 9 9 10 11 12 12 11 10 9 9 9 9 9 9 9 10 10 10 10 10 11
6 6 5 5 5 5 5 5 5 5 5 5 5 6 6 6 6 6 6 6 7 8 8 8 8 8 8 8 8 8 9 10 11 11 9 8 8 7 5 4 3 4 4 4 4 4 3 3 3 4 4 4 4 4 3 3 3 4 5 5 6 7 7 8 8 9 9 10 11 12 12 12 11 10 10 10 10 10 9 9 10 10 10 10 10
5 5 5 4 4 4 4 4 4 4 4 5 5 6 6 6 6 6 6 6 6 7 8 8 8 7 7 7 7 7 8 9 9 9 8 8 8 8 6 4 4 4 3 4 4 4 4 4 4 4 4 4 4 4 4 4 4 4 4 4 4 4 5 5 6 7 8 9 9 10 11 12 12 12 12 12 11 11 10 10 10 10 10 10 10
5 4 4 3 3 3 3 3 3 4 5 5 6 6 6 6 6 6 7 6 6 6 6 6 6 6 6 6 6 7 7 7 8 8 8 8 8 8 7 5 4 3 3 3 4 4 3 3 3 4 4 4 5 5 5 5 5 5 5 5 5 5 5 5 6 6 6 7 7 8 9 10 10 11 11 12 13 13 12 12 12 10 10 9 9
4 4 3 2 2 2 2 2 3 4 4 5 5 6 6 6 6 7 7 7 7 6 5 5 5 5 5 5 6 6 6 6 7 7 7 8 8 8 7 6 5 3 2 2 2 3 3 3 3 3 4 4 5 6 6 6 6 6 6 6 6 6 6 7 7 7 8 7 6 6 6 7 8 9 10 11 12 12 13 14 14 13 11 10 10
4 4 3 2 2 1 2 2 3 4 4 4 5 5 5 6 6 7 7 7 7 6 5 5 4 4 4 4 4 5 5 6 6 6 7 7 7 7 7 6 6 4 2 2 1 1 2 3 3 3 4 4 5 6 6 6 6 6 6 7 7 6 6 7 7 7 7 8 8 7 6 5 6 6 7 8 9 11 12 13 14 13 12 11 10
4 3 2 1 1 1 3 3 4 4 4 3 4 4 4 5 6 7 7 7 7 7 6 5 4 4 4 3 3 3 4 5 5 5 6 6 6 5 5 5 6 5 3 2 2 2 2 1 2 3 4 4 5 6 6 6 6 6 6 7 7 7 7 7 7 6 6 6 7 7 7 6 6 6 7 7 8 8 9 10 11 11 11 11 11
4 3 2 1 1 2 3 4 5 5 4 3 3 3 4 6 7 8 8 9 8 7 7 6 4 3 4 3 3 2 2 3 3 4 5 6 5 4 5 5 5 4 4 4 3 3 2 2 1 2 3 4 5 6 6 6 6 7 7 7 7 8 8 8 7 7 6 6 6 6 7 6 7 7 8 9 9 9 8 6 5 6 7 8 10
4 3 2 0 1 2 4 4 5 5 4 3 2 3 5 7 8 9 9 10 9 8 7 6 5 4 4 3 3 2 2 1 1 2 3 4 4 4 4 4 4 4 5 4 4 4 4 2 2 2 3 4 5 5 6 5 5 6 7 7 7 8 9 8 8 7 6 6 6 6 6 6 7 7 8 8 9 9 9 7 5 3 4 5 7
4 3 1 0 1 3 4 5 5 4 3 3 2 3 5 6 8 9 10 10 10 9 8 7 6 6 5 4 3 3 2 1 1 1 2 2 3 3 4 4 4 4 4 4 4 4 5 4 3 3 3 5 6 6 6 5 5 5 6 6 6 7 8 8 8 7 7 7 6 6 6 6 7 7 8 8 9 9 8 8 6 5 5 6 7
4 2 2 1 2 3 4 5 5 4 3 2 3 3 5 6 8 9 10 10 10 10 9 9 8 8 8 6 4 3 3 2 3 2 2 1 1 3 3 4 4 4 4 4 5 6 6 6 5 5 5 5 6 6 6 5 5 5 5 5 5 6 7 7 7 7 7 7 7 6 6 6 7 7 7 8 8 8 8 8 7 7 7 7 8
4 3 2 1 2 4 5 5 4 3 3 2 3 4 5 7 8 8 9 9 9 10 11 11 10 10 9 8 6 5 4 4 4 3 3 2 1 3 3 4 5 6 6 6 7 7 7 6 6 5 5 5 6 7 7 6 5 4 4 4 4 5 6 6 7 6 6 6 6 6 6 7 7 7 7 7 8 8 8 8 9 9 8 9 9
4 3 2 1 2 4 4 4 3 3 2 2 3 5 6 8 8 7 8 8 9 11 12 12 12 11 10 8 8 7 6 5 4 4 4 4 3 3 4 5 6 7 7 7 7 7 7 7 7 6 6 6 6 6 6 6 5 4 3 3 3 4 5 5 6 6 6 6 6 7 7 7 8 8 8 8 8 8 9 10 10 11 11 12 12
5 4 2 1 2 3 3 3 3 2 2 3 4 5 7 7 7 7 8 8 9 10 11 12 12 12 11 10 9 8 7 5 5 4 5 5 5 5 5 5 5 6 7 7 8 9 9 8 8 8 7 7 7 6 5 5 5 4 4 3 3 3 4 4 5 5 6 6 6 7 8 8 9 9 9 9 8 8 9 10 11 12 13 14 15
5 4 2 1 1 3 3 2 2 2 2 3 4 6 6 6 6 7 8 8 8 9 10 11 12 12 12 11 10 9 8 7 6 6 6 6 6 6 6 6 5 5 6 6 7 8 9 9 9 9 8 8 8 7 6 5 5 5 5 4 4 3 4 5 5 6 6 7 7 8 9 9 10 10 10 10 9 9 9 10 11 12 13 14 15
5 4 2 2 2 2 3 2 2 2 3 3 4 6 6 5 6 7 8 8 8 9 10 11 11 12 12 11 10 10 9 9 9 8 8 8 8 8 8 8 7 7 6 7 7 7 8 9 10 10 9 9 8 8 8 7 6 6 5 5 5 5 5 5 6 7 8 9 9 10 11 11 11 11 11 11 10 10 10 11 12 13 14 15 16
4 3 2 2 3 3 3 3 2 2 3 4 5 5 5 5 7 8 9 9 9 9 10 11 11 11 11 10 10 10 9 9 10 10 10 10 10 11 11 10 10 9 9 9 9 9 9 9 9 9 9 9 9 9 9 8 7 7 6 6 6 6 6 6 7 8 8 9 10 11 11 12 12 12 12 12 11 11 11 12 13 14 15 16 17
3 2 2 3 3 3 4 4 3 3 4 5 5 5 5 6 8 10 10 10 10 10 11 11 11 10 10 10 10 9 9 9 10 10 10 11 12 12 13 12 12 12 12 12 12 12 11 10 9 9 8 9 9 9 9 8 8 7 7 7 7 8 8 8 9 9 9 10 10 11 11 12 12 12 12 12 12 12 13 13 14 16 17 18 19
2 2 3 3 4 4 4 5 4 4 4 5 5 5 5 7 10 10 10 10 11 11 12 11 11 10 10 9 9 9 9 9 9 10 10 11 11 12 13 13 13 13 13 13 14 14 13 13 11 10 9 8 8 9 9 9 9 9 9 9 9 10 10 11 11 12 12 12 12 12 12 13 13 13 13 13 14 14 15 15 16 17 19 20 21
2 1 2 2 3 3 4 5 5 5 5 6 5 5 6 8 10 11 10 10 11 12 12 11 10 10 9 9 8 8 8 9 9 10 10 10 10 10 11 11 12 13 13 14 14 15 15 14 13 11 10 10 9 9 10 10 10 10 11 11 11 11 12 12 13 14 14 15 15 15 15 15 15 15 16 16 17 17 18 19 19 20 21 22 24
1 1 2 2 3 3 3 4 5 5 6 6 6 6 7 9 11 10 9 10 11 11 12 11 11 10 9 9 8 8 8 9 9 10 10 10 9 9 9 10 10 11 12 13 13 13 14 14 14 12 11 10 10 10 10 10 10 11 11 12 12 13 13 14 15 16 16 17 17 17 18 18 18 18 19 19 20 21 22 22 23 24 25 27 28
2 0 2 3 3 3 3 4 5 6 7 7 7 8 8 9 11 10 9 10 10 10 11 12 12 11 10 9 8 8 8 8 9 9 10 10 9 9 9 9 9 10 11 12 12 13 13 14 14 13 12 11 11 11 11 11 11 11 12 12 13 14 15 15 16 17 18 19 19 19 20 20 20 21 22 22 23 24 26 27 28 29 30 32 33
3 1 1 3 4 4 4 4 5 6 7 8 8 9 9 10 10 10 10 10 9 10 11 11 12 11 10 9 9 8 8 8 9 9 10 10 10 9 8 8 9 9 10 10 11 11 12 12 13 13 12 12 12 12 12 12 12 12 12 13 14 15 15 16 17 18 19 20 20 21 21 22 22 23 24 25 26 27 28 29 31 32 33 34 35
5 4 2 3 4 5 5 5 5 6 7 7 8 9 9 9 10 9 9 9 9 10 11 11 10 10 9 9 9 8 8 8 8 9 10 10 9 9 8 8 8 8 8 9 9 10 10 11 11 12 12 11 12 12 13 12 12 12 13 13 14 14 15 16 17 17 18 19 20 21 22 22 23 24 24 25 26 27 28 30 31 32 33 34 34
8 6 4 3 4 6 6 6 6 6 6 7 8 9 9 9 9 9 8 8 8 9 10 10 10 9 8 8 8 8 8 8 8 9 9 9 9 8 9 8 8 7 7 8 8 8 9 9 10 11 11 10 10 11 12 13 13 12 13 13 14 14 15 15 16 17 18 19 19 20 21 22 22 23 24 25 26 27 28 29 30 31 32 32 33
10 8 6 5 5 5 6 7 7 7 7 7 8 8 9 9 9 8 8 7 7 8 9 9 9 8 8 8 8 7 8 8 8 8 8 8 8 8 8 8 8 7 7 7 7 7 7 8 8 9 10 10 10 10 12 13 13 13 13 14 14 15 16 17 17 18 19 19 20 21 22 22 23 24 25 25 26 27 28 29 30 31 32 33 33
11 9 8 7 6 6 6 8 9 9 8 8 8 8 8 8 8 8 7 7 6 6 7 7 7 7 8 8 8 8 8 8 7 7 7 7 7 7 7 7 7 7 7 7 7 6 6 6 7 7 8 9 9 9 10 11 13 14 14 15 15 16 17 18 19 20 20 21 22 22 23 24 24 25 26 27 28 28 29 30 31 32 33 34 34
13 11 10 10 9 8 7 8 9 10 10 9 9 8 8 8 8 8 7 7 6 5 5 5 5 6 8 8 8 8 8 7 7 6 7 7 6 6 6 6 6 7 7 7 7 7 6 6 6 7 7 8 9 9 10 11 12 14 15 16 17 18 18 19 20 21 22 23 23 24 25 25 26 26 27 28 28 29 30 31 32 33 34 34 35
14 13 12 12 11 10 9 9 10 11 11 11 10 10 9 8 8 8 8 8 6 5 4 4 4 5 7 8 8 7 6 6 6 7 7 7 7 7 7 7 6 7 7 8 8 8 8 7 7 7 8 9 10 10 11 12 13 15 16 17 19 20 20 21 22 23 24 25 25 26 26 27 27 28 28 29 29 30 30 31 32 33 34 35 37
15 14 13 14 14 13 11 10 11 12 12 12 11 11 10 9 8 8 8 9 7 5 4 4 4 5 6 6 6 6 6 7 7 7 7 7 8 8 9 9 9 8 8 8 9 9 9 9 9 9 9 10 11 12 13 14 15 17 18 19 20 22 23 24 24 25 26 26 27 27 27 27 28 28 29 30 31 31 32 32 33 34 36 37 39
17 15 15 15 15 15 14 13 12 13 13 14 13 12 12 11 9 9 9 10 9 7 5 5 5 6 6 6 6 7 8 8 8 8 8 8 8 9 10 11 11 11 10 10 10 11 11 11 11 12 12 12 13 14 15 17 18 20 21 22 23 24 25 26 27 28 29 29 28 28 28 28 29 30 30 31 32 33 34 35 36 37 38 40 41
18 18 17 17 17 17 17 15 14 14 14 15 15 14 14 13 11 10 9 10 11 9 7 5 5 6 6 6 7 9 10 10 10 10 10 10 11 11 12 13 13 13 13 12 12 12 13 14 14 14 15 16 17 17 19 20 22 23 24 25 26 27 27 28 30 31 31 31 30 29 29 29 30 31 33 34 35 36 37 38 40 41 42 42 44
19 19 19 19 19 19 19 18 16 16 16 16 16 16 15 15 13 11 11 11 12 11 9 7 5 5 5 6 8 10 11 10 10 10 11 12 13 14 15 16 15 15 14 13 12 12 13 14 16 17 18 19 20 21 21 22 24 25 26 27 27 27 28 29 31 32 32 32 31 31 31 32 33 34 35 37 38 39 40 42 43 44 45 45 46
20 20 21 21 20 20 20 20 18 18 18 18 18 17 16 16 15 13 12 12 13 12 11 9 6 5 5 7 8 10 10 10 10 11 13 14 15 15 16 15 15 14 13 12 12 12 13 14 16 18 19 20 21 22 23 24 25 26 26 27 28 28 29 30 31 32 32 32 32 32 33 34 35 37 38 39 40 41 43 44 45 45 45 46 46
21 21 21 22 21 21 22 21 20 19 19 19 20 19 18 18 17 15 14 13 14 14 13 11 9 7 7 8 9 11 11 11 12 14 14 14 13 14 14 13 12 11 11 11 12 12 13 14 16 18 19 21 22 23 24 26 26 27 27 28 28 29 30 31 31 32 32 33 33 34 35 36 37 39 40 41 42 43 44 45 45 45 45 45 46
22 22 22 22 22 22 22 21 20 20 20 20 21 20 19 19 18 17 15 14 14 15 15 14 12 11 10 10 11 12 13 13 14 15 15 13 13 14 14 13 11 10 10 11 12 14 14 15 16 18 19 21 22 23 25 27 28 28 29 29 29 30 30 31 32 32 32 33 35 36 37 38 39 40 41 42 43 45 45 46 45 44 44 43 43
24 24 23 23 22 22 22 22 21 21 21 22 23 22 21 20 19 18 17 16 15 16 17 17 15 13 12 12 13 13 14 14 15 16 15 14 14 15 15 13 11 10 11 12 14 15 16 16 17 18 19 20 22 24 26 27 28 29 30 30 30 31 31 32 32 32 33 34 36 37 39 40 41 42 43 44 45 46 46 46 45 44 42 41 41
24 24 24 24 24 24 24 23 23 23 23 23 24 24 22 21 20 19 18 17 17 17 18 18 18 16 15 14 14 15 15 15 15 16 16 15 15 15 15 14 13 13 13 14 15 16 16 17 18 18 19 21 22 24 26 28 30 30 31 31 31 31 32 33 32 32 34 35 37 38 40 41 42 43 44 45 47 47 47 46 44 42 40 39 39
24 24 24 25 25 25 25 25 24 24 24 25 25 24 23 21 20 20 19 17 17 18 18 19 19 18 17 16 16 16 16 16 16 16 16 16 15 15 15 14 14 14 15 15 16 17 17 18 19 19 20 22 24 25 27 29 31 32 32 32 32 32 33 33 34 34 34 36 38 39 40 41 43 44 45 47 48 48 47 47 44 41 39 38 38
22 23 23 24 25 25 26 26 26 26 25 25 24 23 22 21 20 19 19 18 18 19 19 20 20 20 19 19 18 18 18 18 17 16 16 17 16 16 16 16 15 15 16 16 16 17 18 19 20 21 22 23 25 27 28 30 31 33 33 34 34 33 33 34 35 35 36 38 39 40 41 42 43 45 46 47 49 48 47 47 44 41 38 37 37
21 21 22 23 24 24 25 25 25 25 24 23 22 21 21 20 19 19 20 19 19 19 20 20 21 22 21 21 21 20 20 20 19 18 17 16 17 17 17 17 17 17 17 18 18 18 19 20 21 22 24 25 26 27 29 31 33 34 35 35 36 36 35 36 36 36 37 40 41 41 42 43 44 45 47 48 48 47 46 45 42 39 38 37 37
20 20 21 21 21 21 22 22 22 21 20 18 18 19 20 20 20 19 20 20 20 20 20 21 22 22 23 23 23 23 22 22 21 20 19 17 17 18 17 16 17 19 20 21 21 21 21 21 22 24 25 27 27 28 30 32 34 36 37 38 38 37 37 38 38 37 38 40 41 42 43 44 45 46 47 47 47 45 45 44 41 38 38 38 39
18 18 17 16 17 17 17 17 17 17 15 15 16 17 19 20 20 20 20 21 21 21 21 22 22 23 23 24 25 25 24 23 22 22 22 20 19 18 18 17 18 20 22 23 24 24 24 24 25 26 27 28 29 30 31 33 34 36 38 39 40 39 39 39 40 39 39 40 41 42 43 44 44 45 46 46 44 43 43 42 40 40 39 39 40
15 14 13 12 12 12 12 13 13 13 13 14 15 17 19 20 21 22 21 22 22 23 23 23 23 24 24 24 25 26 26 25 24 24 24 24 23 21 21 20 20 22 24 25 26 27 27 27 27 28 29 30 31 32 33 34 35 37 38 40 41 42 41 41 41 41 41 41 41 42 43 44 44 45 46 44 43 42 42 40 40 41 41 42 42
14 13 11 11 10 9 9 9 9 10 11 11 13 15 17 19 21 22 22 22 23 24 24 25 25 25 25 25 26 27 27 27 26 26 26 26 27 26 24 22 22 23 26 27 28 29 30 30 30 30 31 31 32 33 34 35 36 38 39 41 43 43 43 43 42 42 42 42 41 42 43 43 44 45 45 43 41 41 41 40 39 40 42 43 44
15 13 12 12 11 10 11 10 10 10 10 9 10 12 14 16 18 20 21 21 21 21 22 23 24 25 25 25 26 26 27 28 28 28 28 28 30 30 28 25 24 25 28 29 30 32 34 34 33 33 33 34 35 36 37 37 38 39 40 42 44 44 44 44 44 43 43 42 41 42 43 43 44 45 44 42 40 39 40 39 39 40 41 43 43
16 15 15 14 13 13 13 14 14 13 12 12 12 13 15 17 18 21 22 23 22 21 21 21 22 23 23 23 24 25 26 27 28 29 29 30 32 33 31 29 27 27 28 31 33 35 36 37 37 37 37 37 37 38 39 40 40 41 43 44 45 46 46 45 45 44 44 42 41 42 43 43 44 45 43 41 40 39 39 39 40 40 42 42 42
19 18 17 16 16 16 16 17 17 17 16 17 17 18 19 21 23 25 25 26 26 25 25 24 23 24 23 23 24 25 26 28 27 27 29 31 33 34 34 33 32 30 30 32 35 37 38 39 40 41 40 40 40 40 41 42 43 44 45 46 47 48 47 46 46 45 44 43 41 41 42 43 44 44 42 40 38 38 38 40 40 41 42 42 42
22 21 19 19 20 20 20 21 21 21 21 22 22 21 23 25 28 29 30 31 32 31 31 30 29 29 28 28 29 29 30 30 28 25 27 30 32 34 36 36 35 34 34 34 36 39 41 42 43 43 43 43 42 42 43 44 45 46 47 47 49 50 50 50 49 47 45 44 42 41 42 43 43 43 42 39 38 37 38 40 40 41 42 42 42
25 24 23 23 23 23 24 24 25 26 26 26 26 26 27 29 31 33 34 35 36 35 35 35 34 34 33 34 36 36 35 34 32 30 29 31 32 34 37 39 39 37 37 38 39 41 43 45 45 45 45 46 45 44 45 46 46 48 49 49 50 51 52 54 53 49 46 45 43 42 42 43 43 43 41 39 37 37 38 39 40 41 42 42 43
28 27 27 26 26 27 28 28 29 30 31 31 31 31 31 32 33 35 38 39 39 38 39 40 40 39 39 39 40 41 41 40 39 38 36 36 37 38 40 43 43 40 40 41 41 42 44 46 47 47 48 49 48 47 47 48 48 50 51 51 52 53 54 56 54 48 46 45 42 42 43 42 42 42 40 38 36 36 37 38 40 42 43 43 44
Wind_Direction
124 117 111 104 94 84 71 59 53 46 39 33 27 20 21 26 25 23 23 17 14 17 21 21 22 25 30 36 41 43 46 47 47 44 35 33 39 40 45 37 359 337 322 314 306 299 301 309 319 333 343 348 348 335 307 284 276 271 269 273 274 273 274 277 281 281 279 275 273 271 274 279 286 293 298 302 306 310 314 319 322 325 326 327 331
129 124 117 111 98 82 70 59 49 41 27 17 15 8 4 8 15 21 23 17 8 6 10 15 19 19 19 23 30 36 40 45 50 52 44 35 38 37 36 41 23 357 333 315 307 305 310 317 323 333 341 349 354 352 352 343 323 308 298 291 285 281 279 281 282 279 276 272 268 265 264 266 271 277 282 286 291 296 303 309 313 317 320 324 330
134 129 122 115 99 80 67 52 35 19 2 356 -0 1 356 357 5 15 19 20 10 2 4 6 12 15 10 12 21 27 32 40 46 53 53 41 40 45 38 40 41 19 345 317 304 300 305 313 319 331 340 339 338 337 344 353 350 340 332 328 317 308 304 300 295 287 280 276 272 268 265 263 263 266 270 272 276 280 285 291 296 303 311 317 323
136 132 128 116 96 76 55 29 11 356 350 350 352 356 359 359 4 14 18 19 12 5 2 357 4 7 2 5 13 19 24 36 38 38 48 43 37 45 43 39 44 37 4 330 315 309 308 309 310 317 324 330 330 331 338 342 342 336 331 333 335 332 330 331 332 328 317 301 289 282 278 274 272 270 270 271 272 274 275 277 279 284 293 302 309
138 135 134 116 89 65 26 0 350 348 351 352 354 358 6 8 12 23 25 22 19 13 5 354 351 355 356 359 3 8 9 27 36 26 34 40 32 39 40 36 38 35 14 343 322 316 310 303 302 306 315 327 327 327 332 333 332 329 325 328 331 332 334 337 343 349 354 350 336 316 301 292 288 284 282 280 279 277 274 272 271 272 277 286 296
141 138 131 107 79 34 337 337 337 338 350 358 2 4 14 16 14 21 24 22 20 14 10 4 351 343 348 355 356 359 359 13 29 20 25 35 32 35 34 32 38 35 7 327 320 316 297 297 307 309 312 318 315 314 318 321 324 325 324 328 329 331 336 338 342 349 356 3 7 8 1 345 328 315 307 301 295 287 279 274 271 268 269 277 291
143 140 131 98 43 337 322 327 328 333 348 7 12 8 13 11 2 5 11 15 16 11 5 5 359 341 336 348 352 356 356 6 16 9 15 30 32 29 25 28 36 37 14 336 329 317 304 318 321 313 308 306 304 305 310 317 323 325 325 328 330 334 338 339 344 348 351 4 15 20 22 18 9 2 354 344 331 315 300 286 275 269 268 275 289
151 145 141 124 328 318 323 325 328 332 343 2 14 7 359 354 352 358 6 14 19 18 10 4 1 348 340 348 352 355 0 9 14 1 6 24 25 11 17 28 28 30 21 2 346 326 330 14 6 317 305 303 303 306 309 317 323 326 328 329 330 336 337 339 345 350 353 5 17 21 20 16 14 13 13 9 3 356 349 334 300 277 276 284 295
164 157 158 164 330 330 336 338 339 337 338 347 357 354 346 345 352 2 10 14 18 20 19 14 6 359 357 355 348 350 358 357 6 6 11 19 10 357 7 21 21 27 23 7 3 352 344 8 21 345 319 318 321 318 316 320 321 325 331 335 334 336 337 339 343 347 350 356 6 16 16 12 12 11 12 14 12 8 8 12 10 344 315 309 310
174 167 155 73 0 356 359 358 353 346 344 344 344 343 341 350 2 10 12 14 15 17 20 20 15 14 15 12 354 341 347 335 329 3 25 19 353 346 354 357 3 18 16 355 4 12 4 11 14 356 345 338 337 334 329 329 323 321 330 337 337 337 339 339 341 344 347 350 357 5 7 10 15 14 13 15 14 11 8 8 8 356 338 327 321
179 167 141 83 27 20 19 13 4 0 8 359 349 347 350 4 13 16 18 18 19 19 21 21 19 19 16 15 12 357 352 342 338 343 349 4 327 327 338 336 341 0 4 354 1 13 13 14 13 7 359 347 345 350 351 345 331 322 325 330 333 336 339 340 340 342 341 343 353 2 3 4 9 11 12 13 11 9 4 360 357 350 341 334 329
179 165 144 94 39 29 25 22 19 24 34 20 4 3 3 10 16 21 25 25 28 29 29 27 24 24 17 11 14 17 14 1 351 336 321 327 311 309 323 326 337 353 358 359 2 6 8 6 7 11 -0 345 349 358 4 2 345 327 323 326 330 333 337 337 337 336 331 333 340 347 351 353 354 355 358 2 1 -0 356 351 349 346 341 336 332
179 168 150 99 38 26 24 22 31 44 49 37 18 10 6 6 13 26 33 32 35 36 35 34 31 30 23 15 15 17 18 10 354 332 322 330 327 319 323 329 341 348 350 355 355 355 1 2 3 8 358 343 348 355 1 6 357 342 332 328 324 325 329 328 327 326 321 321 327 331 335 338 338 338 341 346 349 350 347 344 343 341 339 336 333
180 173 168 123 27 19 17 15 29 39 35 27 16 7 4 5 12 26 37 36 35 35 33 31 31 30 26 20 17 14 13 6 353 341 335 334 332 325 321 329 342 343 343 348 348 348 353 357 360 6 3 351 354 358 355 357 359 358 353 337 321 311 310 309 309 309 307 307 310 314 319 322 324 324 326 330 335 338 337 337 338 338 337 334 332
184 184 200 235 347 3 4 359 9 16 8 9 7 5 4 7 12 21 28 30 28 26 25 23 24 25 21 17 14 10 5 359 354 349 343 338 336 331 328 338 346 341 340 341 341 344 346 348 351 357 -0 357 0 3 358 359 359 359 358 349 337 320 306 299 297 295 292 291 291 295 301 306 310 312 313 315 318 322 325 329 331 331 331 329 328
190 199 222 260 299 334 343 335 337 347 346 353 358 1 3 6 11 14 16 19 20 18 16 17 17 17 14 10 8 4 357 353 350 349 346 342 340 337 337 343 345 341 343 340 338 339 341 344 346 348 350 352 358 -0 358 0 359 354 351 345 340 333 323 314 305 300 295 290 288 287 289 292 295 297 299 300 303 308 313 318 321 322 321 321 320
192 208 238 272 289 311 323 315 312 328 335 343 351 358 -0 3 8 8 6 10 14 13 10 9 9 12 11 7 5 1 355 349 346 345 342 339 337 336 338 340 340 341 343 342 340 339 339 341 343 342 342 344 349 352 351 353 352 349 345 339 336 332 327 322 315 310 305 300 298 295 292 291 289 287 286 286 288 294 300 306 311 314 315 315 314
193 224 257 278 287 297 308 304 298 310 329 336 342 351 355 359 4 4 4 7 9 7 7 6 7 14 18 14 10 4 358 354 349 345 341 337 335 334 334 335 336 336 338 340 340 340 338 339 339 335 333 334 337 338 338 340 340 339 337 336 337 334 330 325 320 316 311 308 305 302 299 295 291 287 283 280 281 284 290 296 301 306 309 311 311
206 252 276 283 286 290 299 299 292 296 314 326 332 341 347 356 2 4 5 6 3 2 5 9 12 18 24 23 19 14 9 5 357 350 345 341 337 333 332 334 335 336 338 340 340 339 337 336 335 330 324 322 321 323 323 325 327 328 328 330 332 332 331 329 326 323 320 317 313 309 305 301 296 292 288 284 282 283 286 290 293 297 300 303 306
221 283 309 310 303 297 297 296 292 289 299 312 322 331 340 352 0 5 6 3 360 359 4 12 15 17 21 25 27 27 26 19 11 2 354 350 347 342 340 340 341 342 341 343 342 339 336 332 328 323 319 316 314 314 314 316 319 320 321 322 322 323 323 322 322 321 320 319 317 315 312 308 303 298 293 290 287 285 286 288 290 292 295 297 299
207 313 358 0 346 323 309 301 295 287 288 300 312 322 333 348 358 2 2 -0 1 0 1 6 10 12 15 20 25 29 29 26 21 15 8 5 1 355 352 348 345 343 341 343 346 343 340 336 329 324 321 319 317 315 314 314 314 314 314 313 313 313 313 314 314 314 315 315 314 313 311 308 304 300 296 293 290 288 288 288 289 291 293 294 296
195 243 2 5 359 342 324 309 300 290 286 292 303 314 327 342 353 358 357 357 2 3 -0 359 2 7 10 15 21 22 22 23 20 15 12 10 5 -0 357 349 344 344 341 343 347 348 349 347 341 336 335 335 331 327 324 324 323 320 318 315 312 311 311 310 309 309 308 307 306 305 303 302 300 298 297 295 294 292 291 291 291 291 292 293 294
204 230 318 342 347 343 333 317 306 296 290 291 297 307 321 336 347 352 354 355 358 0 0 358 357 0 4 7 12 13 13 13 10 6 6 4 0 357 356 350 344 342 341 341 344 346 349 349 346 345 347 348 346 341 337 337 335 333 330 325 321 318 315 313 311 308 306 304 302 300 299 298 296 296 295 294 294 293 293 293 293 293 293 293 294
219 235 266 310 331 336 331 320 309 300 295 292 294 304 315 328 339 345 349 352 354 356 357 358 356 355 357 358 -0 2 3 4 1 359 359 359 360 358 358 358 352 346 344 344 345 345 346 345 343 344 347 352 351 347 344 344 343 341 338 333 329 326 323 320 317 314 311 309 307 305 303 302 300 298 297 295 294 293 293 293 293 293 293 293 293
225 234 246 275 309 326 328 320 309 299 293 289 292 301 311 321 330 335 341 347 352 352 352 355 353 350 352 352 351 353 353 353 354 355 358 0 5 7 7 8 4 358 355 355 353 351 348 346 344 343 343 348 351 348 345 343 341 339 337 333 330 328 325 322 319 316 314 312 311 309 308 306 304 302 300 298 297 295 294 294 293 292 292 292 292
229 233 234 246 277 306 321 323 314 301 290 284 287 297 307 317 321 323 330 339 349 349 347 351 353 353 356 356 355 354 350 350 353 358 4 6 9 11 14 15 12 6 4 5 7 5 0 356 354 352 348 348 351 348 345 342 338 335 332 329 327 324 322 319 316 313 312 310 309 307 305 304 303 301 300 299 298 297 296 295 295 294 293 293 292
231 233 234 239 257 281 302 316 318 309 295 284 282 289 301 312 312 311 315 326 341 345 343 348 355 4 5 1 359 359 356 357 -0 4 6 7 8 9 11 12 9 4 2 4 11 14 14 11 6 4 359 353 351 348 344 341 336 332 328 326 323 321 318 316 313 311 309 306 304 302 301 299 298 297 296 295 295 294 294 293 293 293 292 292 291
233 235 236 239 248 262 280 299 311 312 304 290 280 281 291 303 304 298 299 310 329 338 336 343 355 6 7 3 -0 360 360 359 358 356 353 353 355 357 359 1 359 357 352 352 357 -0 359 2 -0 357 355 349 346 343 338 333 330 326 323 321 318 317 315 313 311 309 307 305 302 300 299 297 296 295 294 293 292 291 290 290 289 289 289 288 288
236 236 236 239 245 254 265 282 297 307 308 298 283 276 280 291 295 289 285 293 311 326 325 328 337 347 357 3 3 1 358 354 349 343 337 335 335 335 338 342 344 345 342 338 338 338 337 338 340 340 339 336 334 332 327 324 322 320 318 316 315 314 312 311 309 307 305 303 302 300 299 298 298 297 296 295 294 293 293 292 291 290 289 288 287
240 240 239 240 246 253 259 268 282 295 304 302 289 275 273 280 284 281 276 280 294 310 314 316 316 320 334 347 353 354 352 347 341 334 329 326 326 327 329 332 334 334 333 329 326 325 324 324 326 328 327 324 322 321 319 318 317 315 315 314 313 313 312 311 311 309 308 306 304 303 302 301 301 300 300 299 299 298 298 297 296 295 293 292 290
245 245 244 243 247 253 256 260 271 284 295 300 293 278 269 271 275 274 269 270 280 293 303 307 309 310 316 318 317 325 331 331 325 319 316 314 313 314 316 320 323 323 323 321 321 321 320 320 321 320 318 316 316 315 315 316 316 315 315 314 313 313 312 312 312 312 311 310 309 307 306 306 305 305 305 304 304 303 303 302 301 299 297 294 292
248 249 248 247 248 251 254 258 265 275 286 293 293 282 269 265 269 269 265 263 269 280 291 299 307 312 311 302 301 312 322 326 325 320 315 310 306 305 306 310 314 315 314 312 314 318 318 318 317 316 315 314 314 315 315 316 316 315 314 313 312 312 311 311 312 312 313 312 310 309 308 307 307 307 307 307 307 307 308 307 306 304 301 297 293
251 251 250 249 249 250 254 257 260 267 277 286 290 285 271 262 264 266 264 259 262 270 281 290 301 310 308 302 305 313 321 327 330 327 322 317 312 309 306 306 306 307 306 305 308 312 313 314 314 314 313 313 314 315 315 315 314 313 313 312 311 310 310 310 311 312 312 310 309 308 308 308 308 308 308 309 310 311 311 310 309 307 303 299 296
252 251 251 250 250 249 252 255 257 262 270 279 284 284 273 262 259 261 262 258 257 261 270 278 285 294 300 302 306 310 315 321 323 325 325 323 320 318 316 312 306 302 299 299 301 305 307 309 311 312 312 311 312 312 313 313 312 312 312 312 310 309 309 310 311 311 310 309 308 308 308 309 309 309 310 311 311 312 312 311 310 308 304 301 299
253 252 251 251 251 250 250 253 254 257 264 273 279 280 274 263 256 258 261 259 256 257 261 267 273 282 290 294 299 304 308 312 315 318 322 324 327 330 329 325 315 304 300 299 301 304 306 308 311 312 313 311 310 310 311 311 312 312 313 312 311 310 310 310 310 310 309 307 307 308 308 309 309 309 310 311 312 313 312 311 310 308 305 303 301
257 256 254 253 253 252 251 252 252 255 260 267 273 276 273 264 256 255 258 261 258 255 256 260 266 276 284 290 294 298 304 308 310 312 314 315 322 329 330 329 323 313 307 305 307 309 311 313 314 314 314 313 311 310 311 311 311 312 312 312 311 310 310 310 311 310 309 307 307 309 309 310 310 311 312 313 313 313 312 311 310 309 307 306 305
259 258 257 255 253 253 253 252 251 254 258 263 268 271 271 265 257 253 256 261 262 258 256 258 261 269 278 286 291 294 299 304 307 309 308 305 311 320 323 322 320 316 312 310 311 313 315 316 316 315 314 313 312 312 312 313 312 312 312 312 311 310 310 310 311 310 310 309 310 311 311 311 312 312 313 314 314 313 313 313 312 311 311 311 309
260 260 259 257 255 253 253 252 251 253 257 261 265 268 268 264 257 253 255 261 265 263 260 259 260 264 271 279 286 291 295 301 306 309 309 305 307 314 317 316 314 313 313 313 313 314 316 316 316 316 316 315 315 316 317 317 316 315 314 313 312 310 310 311 311 312 312 312 312 312 312 312 313 313 314 314 314 315 316 315 315 315 315 314 312
263 262 260 258 256 253 251 252 251 252 255 259 263 265 265 261 256 254 254 259 266 267 265 262 261 262 266 273 279 286 292 297 302 306 309 307 306 311 315 314 313 313 314 315 316 317 317 317 318 319 320 320 320 322 323 322 320 319 318 315 313 312 311 311 313 314 313 313 312 312 313 314 314 315 315 315 316 318 319 318 318 319 318 316 314
264 262 260 258 255 253 251 251 251 252 254 256 259 262 262 259 255 253 253 256 263 268 268 266 264 262 264 269 274 281 287 293 297 301 305 306 304 307 311 312 311 311 313 314 316 317 318 319 320 321 323 324 324 326 327 326 325 324 323 320 316 314 313 313 314 316 315 313 312 313 315 316 315 315 316 317 318 319 320 320 320 321 319 317 315
262 260 258 256 254 252 251 251 252 253 254 255 256 258 259 258 254 251 252 254 259 265 270 270 269 267 265 266 270 275 281 286 290 293 296 299 302 304 307 309 307 307 308 310 312 315 316 318 319 320 322 323 324 327 328 328 329 329 328 325 321 317 315 315 316 317 316 313 313 315 317 317 316 316 317 317 319 320 321 321 321 320 319 317 316
260 258 258 256 253 251 251 251 252 254 255 254 255 256 258 258 254 251 251 255 259 264 269 273 273 271 268 266 266 270 275 280 285 287 287 289 293 298 303 307 308 307 307 307 307 309 312 315 317 318 320 321 322 325 326 327 330 331 330 329 326 321 319 317 317 316 314 313 313 316 317 317 316 316 317 318 318 319 320 321 322 321 320 319 317
255 254 253 252 249 247 247 248 250 252 254 253 252 254 257 259 258 255 253 256 260 264 268 271 273 272 270 267 265 266 269 274 278 281 282 282 282 287 294 300 306 308 308 308 307 306 307 310 313 315 316 317 319 321 322 324 327 329 330 330 329 326 323 320 317 314 312 312 313 315 317 316 316 316 317 318 318 318 319 321 322 322 322 320 318
245 243 240 238 237 237 240 244 248 251 252 252 252 253 257 259 260 260 258 257 260 264 267 269 270 269 268 267 266 265 266 269 271 274 277 278 277 278 282 289 297 303 305 307 308 307 305 306 308 310 312 314 315 317 318 320 323 325 327 328 328 328 326 321 316 313 311 312 314 316 316 316 316 317 318 318 319 319 320 322 323 323 322 321 320
235 232 228 226 226 227 230 235 242 248 250 253 256 257 259 261 263 264 264 263 263 266 268 270 270 269 268 267 266 265 265 265 266 267 271 274 275 275 277 281 288 294 298 301 304 305 305 305 305 306 308 310 312 313 314 316 319 321 322 324 325 326 325 322 317 313 311 312 314 316 317 316 316 318 318 319 319 319 321 323 323 322 322 321 321
233 230 226 224 223 224 227 228 232 240 247 252 256 260 263 265 267 269 270 270 269 270 271 271 272 271 270 270 270 268 266 264 263 263 264 267 271 272 274 276 280 286 291 295 298 300 302 303 304 305 306 307 308 309 310 313 315 317 318 320 323 323 323 322 317 312 311 312 314 316 317 317 317 319 319 319 320 319 321 323 323 323 322 322 323
233 230 227 227 228 230 233 235 233 236 244 249 253 260 265 267 269 271 273 275 275 275 273 272 273 274 273 273 272 271 268 265 263 262 262 263 266 269 272 274 276 280 285 291 294 295 298 300 301 303 305 306 306 306 307 309 312 313 314 317 320 321 321 320 316 312 311 312 314 317 317 317 318 320 319 319 320 321 322 324 325 324 324 325 325
235 235 236 238 239 239 241 243 242 240 241 245 249 256 263 268 270 271 273 275 276 276 276 275 275 275 275 275 274 273 270 267 264 263 262 263 265 268 271 273 274 276 280 285 289 291 294 296 297 300 302 303 304 304 305 307 309 311 312 314 317 318 319 319 317 313 311 311 314 317 317 317 319 320 319 319 320 321 322 325 326 326 326 326 326
240 242 244 246 248 250 251 251 251 249 247 247 247 251 260 268 272 273 273 274 275 277 277 277 277 276 276 276 275 273 272 271 271 269 267 267 268 270 272 273 274 274 277 281 285 288 291 292 294 296 298 298 301 302 304 306 308 309 310 311 313 315 317 319 317 314 311 311 314 317 317 317 319 319 319 320 322 322 323 325 326 327 327 327 327
248 248 249 251 254 258 260 261 261 260 259 256 253 254 259 265 269 272 273 274 275 276 276 276 276 276 276 276 275 275 275 277 278 278 276 275 275 274 275 275 275 275 277 279 281 284 287 289 291 294 294 295 297 299 301 303 305 307 308 309 311 313 315 317 315 312 311 311 314 316 316 317 319 319 319 321 322 323 323 324 326 327 328 329 328
255 255 255 256 257 260 262 263 263 264 264 263 261 261 263 265 267 270 272 273 274 276 278 278 277 274 273 271 271 274 277 279 280 280 279 279 278 277 278 278 278 278 279 279 279 280 283 286 289 291 291 292 294 296 298 300 302 304 305 307 309 311 313 315 314 311 310 311 314 316 316 317 319 319 319 321 321 322 325 327 328 329 329 330 329
Height
5932 5932 5933 5933 5933 5933 5932 5932 5932 5932 5931 5931 5930 5930 5930 5930 5930 5930 5929 5929 5928 5928 5927 5927 5927 5926 5926 5926 5926 5926 5926 5926 5925 5925 5924 5923 5922 5922 5921 5921 5922 5922 5921 5921 5920 5919 5919 5919 5919 5919 5918 5918 5917 5917 5916 5916 5916 5916 5916 5916 5917 5916 5916 5916 5916 5916 5916 5916 5916 5916 5917 5917 5917 5917 5917 5917 5916 5916 5916 5916 5915 5915 5915 5914 5914
5933 5933 5934 5934 5934 5934 5934 5934 5933 5933 5933 5932 5932 5931 5931 5931 5931 5931 5931 5930 5929 5928 5928 5928 5928 5928 5927 5927 5927 5927 5927 5927 5927 5926 5925 5925 5924 5924 5923 5922 5922 5922 5922 5921 5921 5920 5920 5920 5920 5920 5920 5919 5918 5918 5917 5917 5917 5917 5917 5916 5916 5916 5916 5916 5916 5916 5915 5916 5916 5916 5916 5916 5917 5917 5917 5916 5916 5915 5915 5915 5915 5915 5915 5914 5914
5934 5934 5934 5934 5935 5935 5935 5935 5934 5934 5933 5933 5932 5932 5932 5932 5932 5931 5931 5931 5930 5930 5929 5929 5929 5928 5928 5927 5927 5927 5927 5927 5927 5926 5926 5925 5925 5925 5924 5923 5922 5922 5922 5922 5922 5921 5921 5921 5921 5921 5921 5920 5920 5919 5919 5918 5918 5918 5917 5916 5916 5916 5916 5916 5916 5915 5915 5915 5915 5915 5916 5916 5916 5916 5916 5915 5915 5915 5915 5915 5914 5914 5914 5914 5914
5935 5935 5935 5935 5936 5936 5936 5935 5935 5934 5934 5933 5933 5932 5932 5932 5932 5932 5931 5931 5931 5930 5930 5930 5929 5929 5928 5928 5927 5927 5927 5927 5927 5926 5925 5925 5925 5924 5924 5924 5922 5922 5922 5922 5922 5922 5922 5922 5921 5921 5921 5921 5920 5920 5919 5919 5919 5918 5917 5917 5917 5917 5916 5916 5916 5915 5915 5915 5915 5915 5915 5915 5915 5915 5914 5914 5914 5914 5914 5914 5913 5913 5913 5914 5913
5936 5936 5936 5936 5936 5936 5936 5936 5936 5935 5934 5934 5933 5933 5933 5933 5932 5932 5932 5932 5931 5931 5930 5930 5929 5929 5928 5928 5927 5927 5927 5927 5927 5926 5926 5925 5925 5924 5924 5923 5923 5922 5922 5922 5922 5922 5922 5922 5921 5921 5921 5920 5920 5920 5920 5919 5919 5918 5918 5917 5917 5917 5916 5916 5916 5915 5915 5915 5915 5915 5915 5914 5914 5914 5914 5913 5914 5913 5913 5913 5913 5913 5913 5913 5913
5936 5937 5937 5937 5937 5937 5937 5936 5936 5936 5935 5935 5934 5934 5934 5933 5933 5933 5932 5932 5932 5931 5930 5930 5929 5929 5929 5928 5927 5927 5927 5927 5927 5927 5926 5926 5925 5924 5925 5924 5923 5922 5922 5922 5922 5922 5921 5921 5921 5921 5921 5920 5920 5919 5919 5919 5918 5918 5918 5917 5917 5916 5916 5916 5916 5915 5915 5915 5915 5915 5914 5914 5914 5913 5913 5913 5913 5912 5912 5912 5912 5912 5913 5913 5913
5937 5937 5937 5937 5938 5937 5937 5937 5936 5936 5936 5935 5935 5934 5934 5934 5933 5933 5932 5932 5932 5931 5930 5930 5929 5928 5928 5928 5928 5927 5927 5927 5927 5927 5927 5927 5926 5925 5925 5924 5923 5922 5923 5922 5922 5922 5921 5921 5921 5921 5920 5920 5919 5919 5919 5919 5918 5918 5918 5917 5917 5916 5916 5916 5915 5915 5915 5915 5915 5915 5915 5914 5914 5913 5913 5913 5912 5912 5911 5911 5911 5912 5912 5913 5912
5938 5938 5938 5938 5938 5938 5937 5937 5937 5936 5936 5935 5935 5935 5934 5934 5933 5933 5932 5932 5932 5931 5930 5930 5929 5928 5928 5928 5928 5928 5927 5927 5927 5927 5926 5927 5926 5925 5926 5925 5923 5923 5923 5923 5923 5922 5921 5921 5921 5921 5920 5920 5920 5919 5919 5919 5918 5918 5918 5918 5917 5916 5916 5916 5916 5915 5915 5915 5915 5915 5915 5915 5914 5914 5913 5913 5912 5912 5911 5911 5911 5911 5912 5912 5912
5938 5938 5938 5938 5938 5938 5937 5937 5937 5936 5936 5935 5935 5935 5934 5934 5933 5933 5932 5932 5931 5931 5931 5930 5929 5928 5928 5927 5927 5927 5927 5928 5928 5927 5927 5927 5926 5926 5926 5925 5924 5924 5924 5923 5923 5922 5922 5921 5921 5921 5920 5920 5920 5920 5919 5919 5918 5918 5918 5918 5917 5917 5916 5916 5916 5916 5916 5916 5915 5915 5915 5915 5915 5914 5914 5913 5913 5913 5912 5912 5911 5912 5912 5912 5912
5938 5938 5939 5939 5938 5938 5938 5937 5937 5936 5936 5935 5935 5935 5935 5934 5934 5933 5932 5932 5931 5931 5931 5930 5929 5929 5928 5928 5927 5927 5927 5928 5928 5928 5928 5927 5927 5926 5925 5925 5925 5925 5924 5923 5923 5923 5922 5921 5920 5920 5920 5920 5920 5920 5920 5919 5918 5918 5918 5918 5918 5917 5917 5917 5917 5916 5916 5916 5916 5916 5915 5915 5915 5914 5914 5914 5914 5914 5913 5913 5912 5912 5912 5912 5912
5938 5939 5939 5939 5939 5938 5938 5938 5937 5936 5936 5935 5935 5935 5935 5935 5934 5933 5933 5932 5932 5931 5930 5930 5929 5928 5928 5928 5928 5927 5927 5927 5928 5927 5928 5928 5927 5926 5925 5925 5925 5926 5925 5924 5923 5923 5923 5922 5921 5920 5920 5920 5920 5920 5920 5919 5919 5919 5918 5918 5918 5918 5917 5917 5917 5917 5917 5917 5916 5916 5915 5915 5915 5914 5914 5914 5914 5914 5914 5914 5913 5913 5913 5913 5912
5939 5939 5939 5939 5939 5939 5938 5938 5937 5937 5936 5936 5936 5936 5935 5935 5934 5934 5933 5933 5932 5931 5930 5930 5929 5928 5928 5928 5928 5928 5927 5927 5927 5927 5927 5927 5927 5926 5926 5925 5924 5925 5924 5924 5923 5923 5923 5922 5921 5921 5921 5921 5920 5920 5920 5919 5919 5919 5918 5918 5918 5918 5918 5918 5918 5918 5917 5917 5917 5916 5916 5915 5915 5915 5914 5914 5914 5914 5914 5914 5914 5913 5913 5913 5912
5939 5939 5939 5939 5939 5939 5939 5938 5938 5938 5937 5937 5937 5936 5936 5935 5935 5934 5934 5933 5932 5932 5931 5930 5930 5929 5929 5928 5928 5927 5927 5927 5926 5926 5926 5926 5926 5925 5925 5925 5924 5924 5923 5923 5923 5923 5923 5922 5922 5922 5921 5921 5921 5920 5920 5919 5919 5919 5918 5918 5918 5917 5918 5918 5918 5918 5918 5918 5917 5917 5916 5916 5915 5915 5915 5914 5914 5914 5914 5914 5914 5913 5913 5913 5912
5939 5940 5940 5940 5939 5939 5939 5939 5939 5938 5938 5938 5937 5937 5937 5936 5935 5935 5934 5934 5933 5932 5932 5931 5930 5930 5929 5929 5928 5927 5927 5927 5926 5926 5925 5925 5925 5925 5925 5925 5925 5924 5923 5923 5922 5922 5922 5922 5922 5922 5922 5921 5921 5921 5920 5919 5919 5918 5918 5917 5917 5917 5917 5917 5917 5917 5917 5917 5917 5917 5916 5916 5915 5915 5914 5914 5914 5914 5913 5913 5913 5913 5913 5912 5912
5939 5940 5940 5940 5940 5940 5939 5939 5939 5939 5939 5938 5938 5938 5937 5937 5936 5935 5935 5934 5933 5933 5932 5932 5931 5930 5930 5929 5928 5928 5927 5927 5926 5926 5925 5925 5925 5925 5925 5925 5925 5925 5924 5923 5923 5922 5921 5921 5921 5922 5922 5921 5921 5920 5920 5919 5919 5918 5918 5917 5917 5917 5917 5916 5916 5916 5916 5916 5916 5916 5916 5915 5915 5915 5914 5914 5913 5913 5913 5913 5912 5912 5912 5912 5912
5940 5940 5940 5941 5940 5940 5940 5939 5939 5939 5939 5939 5939 5938 5938 5937 5936 5936 5935 5934 5934 5933 5933 5932 5932 5931 5930 5930 5929 5928 5928 5927 5926 5926 5926 5925 5925 5924 5924 5925 5925 5925 5924 5924 5923 5922 5922 5921 5921 5920 5921 5921 5921 5920 5919 5919 5918 5918 5917 5917 5917 5917 5916 5916 5916 5915 5915 5915 5915 5915 5915 5914 5914 5914 5914 5913 5913 5913 5912 5912 5912 5911 5911 5911 5911
5940 5940 5941 5941 5941 5940 5940 5940 5940 5940 5940 5940 5939 5939 5938 5938 5937 5936 5935 5934 5934 5933 5933 5933 5932 5932 5931 5930 5929 5929 5928 5927 5927 5926 5926 5925 5925 5924 5924 5924 5924 5924 5924 5923 5923 5922 5922 5921 5921 5920 5920 5920 5919 5919 5919 5918 5918 5917 5917 5917 5916 5916 5916 5916 5915 5915 5914 5914 5914 5914 5914 5914 5913 5913 5913 5913 5912 5912 5912 5911 5911 5911 5910 5910 5910
5940 5940 5940 5941 5940 5940 5940 5940 5940 5940 5940 5940 5940 5939 5939 5938 5937 5936 5935 5934 5934 5933 5933 5933 5932 5932 5931 5930 5930 5929 5928 5928 5927 5927 5926 5926 5925 5925 5924 5924 5924 5923 5923 5923 5922 5922 5921 5921 5921 5920 5919 5919 5918 5918 5918 5918 5917 5917 5916 5916 5916 5915 5915 5915 5915 5915 5914 5914 5914 5913 5913 5913 5913 5912 5912 5912 5912 5911 5911 5911 5910 5910 5909 5909 5908
5940 5940 5940 5940 5940 5940 5940 5940 5940 5940 5940 5940 5940 5940 5939 5938 5938 5937 5936 5935 5934 5934 5933 5933 5933 5932 5932 5931 5931 5930 5929 5928 5928 5927 5926 5926 5926 5925 5925 5924 5924 5923 5923 5923 5922 5921 5920 5920 5920 5920 5919 5919 5918 5918 5918 5917 5917 5917 5916 5916 5915 5915 5915 5915 5914 5914 5914 5914 5913 5913 5913 5913 5912 5912 5912 5911 5911 5911 5910 5910 5909 5909 5909 5908 5907
5940 5940 5940 5940 5940 5940 5940 5939 5940 5939 5939 5940 5940 5939 5939 5939 5938 5937 5936 5935 5934 5934 5934 5933 5933 5933 5933 5932 5932 5931 5930 5929 5929 5928 5927 5927 5926 5925 5925 5924 5924 5924 5923 5923 5923 5922 5921 5920 5919 5919 5918 5918 5917 5917 5917 5917 5917 5917 5916 5916 5915 5915 5915 5914 5914 5914 5913 5913 5913 5913 5912 5912 5912 5911 5911 5911 5910 5910 5909 5909 5908 5908 5907 5907 5906
5940 5940 5940 5940 5940 5940 5940 5939 5939 5939 5939 5939 5939 5939 5939 5939 5938 5937 5937 5936 5935 5934 5934 5934 5933 5933 5933 5933 5932 5932 5931 5930 5930 5929 5928 5928 5927 5926 5925 5925 5925 5924 5924 5924 5923 5923 5922 5921 5920 5919 5919 5918 5917 5917 5917 5916 5916 5916 5916 5915 5915 5914 5914 5914 5913 5913 5913 5913 5912 5912 5911 5911 5911 5910 5910 5909 5909 5908 5908 5907 5907 5906 5905 5905 5904
5939 5940 5940 5940 5940 5940 5940 5939 5939 5939 5939 5939 5939 5939 5939 5938 5938 5937 5937 5936 5936 5935 5934 5934 5934 5933 5933 5933 5933 5932 5931 5931 5930 5930 5929 5929 5928 5927 5926 5926 5925 5925 5924 5924 5923 5923 5922 5922 5921 5920 5919 5918 5918 5917 5916 5916 5915 5915 5915 5914 5914 5914 5913 5913 5913 5913 5912 5912 5912 5911 5910 5910 5909 5909 5908 5907 5907 5906 5906 5905 5904 5904 5903 5902 5901
5939 5939 5940 5940 5940 5940 5939 5939 5939 5939 5939 5939 5939 5938 5938 5938 5938 5937 5937 5936 5936 5935 5935 5935 5934 5934 5933 5933 5932 5932 5932 5931 5931 5930 5930 5929 5928 5928 5927 5926 5925 5925 5924 5924 5923 5923 5922 5922 5921 5920 5919 5919 5918 5917 5916 5915 5915 5914 5914 5914 5913 5913 5912 5912 5911 5911 5911 5911 5910 5910 5909 5909 5908 5907 5906 5906 5905 5904 5903 5902 5901 5901 5900 5899 5898
5938 5939 5939 5939 5940 5939 5939 5939 5939 5938 5938 5938 5938 5938 5938 5938 5938 5937 5937 5937 5936 5935 5935 5935 5935 5934 5934 5933 5933 5932 5932 5931 5931 5930 5930 5929 5928 5928 5927 5927 5926 5925 5924 5924 5923 5922 5922 5922 5921 5920 5920 5919 5918 5917 5916 5915 5915 5914 5914 5913 5913 5912 5911 5911 5910 5910 5909 5909 5908 5908 5907 5906 5905 5905 5904 5903 5902 5902 5901 5900 5899 5898 5897 5896 5895
5937 5938 5939 5939 5939 5939 5939 5938 5938 5938 5938 5938 5938 5938 5938 5938 5938 5937 5937 5937 5937 5936 5935 5935 5935 5935 5934 5934 5933 5932 5931 5931 5931 5930 5930 5929 5928 5928 5927 5927 5926 5925 5925 5924 5923 5922 5922 5921 5921 5920 5920 5919 5918 5917 5916 5916 5915 5914 5913 5912 5912 5911 5910 5909 5908 5908 5907 5906 5906 5905 5904 5903 5902 5902 5901 5900 5899 5898 5897 5896 5895 5894 5893 5893 5891
5936 5937 5938 5938 5938 5938 5938 5938 5938 5938 5938 5938 5938 5938 5938 5938 5938 5938 5937 5937 5937 5937 5936 5936 5935 5935 5934 5934 5933 5932 5932 5931 5930 5930 5930 5929 5928 5928 5927 5927 5926 5926 5925 5924 5923 5923 5922 5921 5921 5920 5920 5919 5918 5917 5916 5915 5915 5914 5912 5911 5910 5909 5909 5908 5907 5906 5905 5904 5904 5903 5902 5901 5900 5899 5898 5897 5895 5894 5893 5892 5891 5890 5889 5889 5888
5935 5936 5937 5937 5937 5937 5938 5938 5937 5937 5937 5937 5937 5937 5938 5938 5938 5937 5937 5937 5937 5937 5937 5936 5936 5935 5935 5934 5933 5932 5932 5931 5930 5930 5930 5929 5929 5928 5927 5927 5926 5926 5925 5925 5924 5923 5922 5921 5921 5920 5919 5919 5918 5917 5916 5915 5914 5913 5911 5910 5909 5908 5907 5906 5905 5905 5904 5903 5902 5901 5900 5899 5898 5897 5895 5894 5893 5892 5891 5889 5888 5887 5886 5884 5883
5934 5935 5936 5936 5936 5936 5937 5937 5937 5937 5937 5937 5937 5937 5937 5937 5937 5937 5937 5937 5937 5937 5937 5936 5936 5936 5935 5935 5934 5933 5932 5931 5930 5930 5929 5929 5928 5928 5927 5927 5926 5925 5925 5924 5924 5923 5922 5921 5921 5920 5919 5918 5918 5917 5916 5914 5913 5912 5911 5909 5908 5907 5906 5905 5904 5903 5902 5901 5900 5899 5898 5897 5895 5894 5893 5892 5890 5889 5888 5887 5885 5884 5882 5881 5879
5933 5934 5934 5935 5935 5935 5936 5936 5936 5936 5936 5936 5936 5936 5936 5936 5937 5937 5937 5936 5936 5937 5937 5936 5936 5936 5936 5935 5934 5933 5932 5931 5931 5930 5929 5928 5927 5927 5926 5926 5925 5925 5924 5923 5923 5922 5922 5921 5920 5919 5919 5918 5917 5916 5915 5914 5913 5911 5910 5909 5907 5906 5905 5904 5903 5902 5900 5899 5898 5897 5895 5894 5893 5891 5890 5888 5887 5886 5884 5883 5882 5880 5878 5877 5875
5932 5933 5933 5933 5934 5934 5934 5935 5935 5935 5935 5935 5935 5935 5935 5935 5936 5936 5936 5936 5936 5936 5936 5936 5936 5936 5936 5935 5934 5933 5932 5931 5931 5930 5929 5928 5927 5926 5926 5925 5925 5924 5923 5922 5922 5921 5920 5920 5920 5919 5918 5917 5916 5915 5914 5913 5911 5910 5909 5907 5906 5905 5903 5902 5901 5900 5898 5897 5895 5894 5893 5891 5890 5888 5886 5885 5883 5882 5881 5879 5878 5876 5874 5872 5870
5930 5931 5932 5932 5932 5933 5933 5933 5934 5934 5934 5933 5933 5934 5934 5934 5934 5935 5935 5935 5935 5935 5935 5935 5935 5935 5935 5935 5934 5933 5932 5931 5930 5930 5929 5928 5927 5926 5925 5924 5923 5923 5922 5922 5921 5920 5919 5918 5918 5918 5917 5916 5915 5914 5912 5911 5909 5908 5907 5905 5904 5902 5901 5900 5899 5897 5896 5894 5892 5891 5889 5888 5886 5885 5883 5882 5880 5878 5877 5875 5873 5871 5869 5867 5865
5929 5929 5930 5930 5931 5931 5931 5932 5932 5932 5932 5932 5932 5932 5933 5933 5933 5934 5934 5934 5934 5934 5934 5934 5934 5934 5934 5934 5933 5932 5932 5931 5930 5929 5928 5927 5926 5925 5924 5923 5922 5922 5921 5920 5919 5918 5917 5917 5916 5916 5915 5914 5913 5912 5910 5909 5907 5906 5904 5903 5901 5900 5899 5897 5896 5895 5893 5891 5890 5888 5886 5885 5883 5882 5880 5878 5876 5875 5873 5871 5869 5866 5864 5862 5860
5927 5927 5928 5928 5929 5929 5929 5930 5930 5931 5931 5931 5931 5931 5931 5931 5932 5932 5933 5933 5933 5933 5933 5933 5933 5933 5933 5933 5932 5931 5931 5930 5929 5928 5927 5926 5925 5924 5923 5922 5921 5920 5919 5919 5918 5918 5916 5915 5914 5914 5913 5912 5911 5910 5908 5907 5905 5904 5902 5901 5899 5898 5897 5895 5894 5892 5890 5889 5887 5885 5884 5882 5880 5878 5876 5874 5872 5871 5869 5866 5864 5861 5859 5856 5854
5925 5925 5925 5926 5926 5927 5927 5928 5928 5929 5929 5929 5929 5929 5929 5930 5930 5931 5931 5932 5932 5932 5932 5932 5932 5932 5932 5931 5931 5931 5930 5929 5928 5928 5927 5925 5924 5923 5922 5920 5919 5918 5918 5917 5917 5916 5915 5914 5913 5912 5911 5910 5909 5908 5907 5905 5904 5902 5900 5899 5897 5896 5894 5893 5892 5890 5888 5886 5884 5883 5881 5879 5877 5875 5873 5871 5869 5866 5864 5862 5859 5856 5853 5851 5848
5923 5923 5923 5924 5924 5925 5925 5926 5926 5927 5927 5927 5927 5927 5928 5928 5928 5929 5930 5930 5930 5930 5930 5930 5930 5930 5930 5930 5930 5929 5929 5929 5928 5927 5926 5924 5923 5922 5921 5919 5918 5917 5917 5916 5915 5915 5915 5914 5913 5912 5910 5909 5908 5906 5905 5903 5902 5900 5899 5897 5895 5893 5892 5891 5889 5887 5885 5883 5882 5880 5878 5876 5874 5871 5869 5867 5865 5862 5860 5857 5854 5851 5848 5845 5842
5921 5921 5921 5922 5922 5922 5923 5924 5924 5925 5925 5925 5925 5925 5926 5926 5926 5927 5928 5928 5929 5929 5929 5929 5929 5929 5929 5929 5928 5928 5928 5927 5927 5926 5925 5924 5922 5921 5920 5919 5918 5917 5916 5915 5914 5914 5913 5913 5912 5911 5909 5908 5906 5905 5903 5902 5900 5899 5897 5895 5893 5891 5890 5888 5886 5885 5883 5881 5879 5877 5875 5873 5871 5868 5866 5863 5861 5858 5855 5851 5848 5845 5842 5839 5836
5918 5919 5919 5919 5920 5920 5921 5921 5922 5922 5923 5923 5923 5923 5924 5924 5924 5925 5926 5926 5927 5927 5927 5927 5927 5927 5927 5927 5927 5927 5926 5926 5926 5925 5924 5923 5921 5920 5919 5918 5917 5916 5915 5914 5913 5912 5912 5911 5910 5909 5908 5906 5905 5903 5902 5900 5899 5897 5895 5893 5891 5889 5887 5886 5884 5882 5880 5878 5877 5875 5872 5870 5867 5865 5862 5859 5856 5853 5850 5846 5843 5840 5837 5834 5831
5915 5916 5916 5917 5918 5918 5918 5918 5919 5920 5920 5920 5921 5921 5921 5922 5923 5923 5924 5924 5925 5925 5925 5925 5926 5926 5926 5926 5926 5925 5925 5925 5924 5924 5923 5921 5920 5919 5918 5917 5916 5915 5914 5913 5912 5911 5910 5909 5908 5907 5906 5905 5903 5902 5900 5898 5897 5895 5893 5891 5889 5887 5885 5883 5882 5880 5878 5875 5874 5872 5869 5866 5864 5861 5858 5855 5852 5848 5845 5841 5837 5835 5832 5828 5825
5913 5913 5913 5914 5915 5915 5915 5916 5917 5917 5918 5918 5918 5919 5919 5920 5920 5921 5922 5922 5923 5923 5923 5923 5924 5924 5924 5924 5924 5924 5924 5923 5923 5923 5921 5920 5919 5918 5917 5916 5915 5914 5913 5912 5911 5910 5908 5907 5906 5905 5904 5902 5901 5900 5898 5896 5894 5893 5891 5889 5887 5885 5883 5880 5878 5876 5875 5872 5870 5868 5866 5863 5860 5857 5855 5851 5847 5843 5840 5836 5833 5830 5827 5824 5821
5910 5910 5910 5911 5911 5912 5913 5913 5914 5914 5915 5915 5916 5916 5917 5917 5918 5919 5919 5920 5921 5921 5921 5921 5921 5922 5922 5922 5922 5922 5922 5922 5921 5921 5920 5919 5918 5917 5916 5915 5914 5913 5912 5911 5909 5908 5907 5905 5903 5902 5901 5900 5898 5897 5895 5894 5892 5890 5888 5886 5884 5882 5880 5878 5875 5873 5871 5869 5867 5864 5862 5859 5856 5853 5850 5846 5842 5839 5835 5831 5828 5825 5823 5820 5817
5907 5907 5907 5908 5908 5909 5910 5910 5911 5911 5912 5913 5914 5914 5914 5915 5916 5916 5917 5918 5918 5919 5919 5919 5919 5920 5920 5920 5920 5920 5920 5920 5920 5919 5919 5918 5917 5916 5914 5913 5912 5911 5910 5909 5908 5907 5905 5903 5902 5900 5898 5897 5896 5894 5893 5891 5889 5887 5885 5883 5881 5878 5876 5874 5872 5870 5868 5865 5863 5860 5858 5855 5852 5849 5845 5842 5838 5835 5831 5827 5825 5822 5819 5816 5813
5904 5904 5905 5905 5906 5907 5907 5908 5908 5909 5910 5911 5912 5912 5912 5912 5913 5914 5915 5915 5916 5916 5917 5917 5917 5917 5917 5918 5918 5918 5918 5918 5917 5917 5917 5916 5915 5914 5913 5912 5911 5909 5908 5907 5906 5905 5903 5902 5900 5898 5896 5894 5893 5892 5890 5888 5886 5884 5882 5880 5878 5875 5873 5870 5868 5867 5865 5862 5859 5856 5854 5851 5848 5845 5841 5837 5834 5830 5826 5823 5821 5818 5815 5812 5810
5902 5902 5903 5903 5904 5905 5905 5906 5906 5907 5908 5909 5909 5910 5910 5910 5911 5912 5912 5913 5913 5914 5914 5914 5914 5914 5914 5914 5915 5915 5915 5915 5915 5914 5914 5914 5913 5912 5911 5910 5909 5907 5906 5905 5903 5902 5901 5899 5897 5896 5894 5892 5891 5889 5887 5885 5883 5882 5879 5877 5875 5872 5869 5867 5865 5863 5862 5860 5857 5854 5851 5848 5844 5841 5837 5833 5829 5826 5822 5819 5816 5813 5811 5808 5805
5900 5901 5901 5902 5902 5903 5904 5904 5905 5906 5906 5907 5907 5908 5908 5908 5908 5909 5910 5910 5910 5911 5911 5911 5911 5911 5911 5911 5911 5911 5912 5912 5912 5911 5911 5910 5910 5909 5908 5908 5907 5906 5904 5902 5901 5899 5898 5897 5895 5893 5892 5890 5888 5886 5884 5882 5881 5879 5877 5875 5872 5869 5866 5864 5862 5860 5858 5856 5854 5851 5848 5844 5841 5838 5834 5830 5826 5821 5818 5816 5812 5809 5806 5803 5800
5899 5900 5900 5901 5901 5902 5902 5903 5903 5904 5905 5905 5905 5906 5906 5906 5906 5906 5907 5907 5907 5908 5908 5907 5907 5907 5907 5908 5908 5908 5908 5908 5908 5908 5907 5907 5906 5905 5905 5905 5904 5903 5901 5900 5898 5896 5895 5894 5893 5891 5889 5887 5886 5884 5882 5880 5877 5875 5873 5871 5869 5866 5864 5861 5859 5857 5855 5853 5850 5847 5844 5840 5837 5833 5830 5826 5822 5818 5814 5812 5809 5806 5802 5799 5795
5898 5899 5899 5899 5900 5901 5901 5901 5902 5902 5903 5903 5904 5904 5904 5904 5904 5903 5903 5904 5904 5905 5905 5904 5904 5904 5904 5904 5904 5904 5904 5904 5904 5904 5904 5903 5902 5901 5901 5901 5901 5900 5899 5897 5895 5893 5892 5891 5890 5888 5887 5885 5883 5881 5879 5877 5875 5872 5870 5868 5866 5864 5861 5858 5855 5853 5851 5849 5847 5844 5840 5836 5833 5829 5826 5822 5818 5815 5811 5808 5806 5803 5800 5796 5792
5896 5897 5897 5898 5898 5899 5899 5900 5900 5901 5901 5902 5902 5902 5902 5902 5901 5901 5900 5900 5901 5901 5901 5901 5901 5901 5901 5901 5900 5900 5900 5900 5900 5900 5900 5899 5898 5897 5897 5897 5897 5896 5895 5894 5892 5890 5889 5887 5886 5885 5883 5882 5880 5878 5876 5874 5872 5869 5866 5865 5863 5861 5859 5857 5854 5850 5847 5845 5843 5840 5836 5832 5829 5825 5822 5818 5814 5811 5808 5805 5803 5800 5796 5792 5788
5894 5894 5895 5895 5896 5896 5897 5897 5898 5898 5899 5899 5900 5900 5900 5899 5899 5898 5898 5898 5898 5898 5899 5899 5899 5898 5898 5898 5897 5896 5896 5895 5896 5896 5896 5896 5895 5893 5893 5893 5893 5892 5892 5891 5889 5887 5885 5884 5882 5881 5879 5878 5876 5874 5872 5870 5868 5865 5863 5861 5859 5857 5855 5853 5850 5847 5843 5840 5838 5836 5831 5828 5825 5822 5818 5815 5811 5807 5804 5801 5799 5796 5792 5788 5784
5891 5892 5892 5893 5893 5893 5894 5895 5895 5896 5896 5897 5897 5898 5898 5897 5896 5895 5895 5895 5894 5895 5895 5896 5896 5896 5896 5895 5894 5893 5892 5891 5892 5893 5893 5892 5892 5891 5889 5889 5888 5888 5888 5887 5885 5883 5881 5880 5878 5877 5875 5873 5872 5870 5868 5867 5865 5862 5859 5857 5855 5853 5851 5849 5846 5843 5839 5836 5834 5832 5828 5824 5821 5818 5815 5811 5808 5804 5800 5797 5795 5792 5789 5785 5781
5888 5889 5890 5890 5891 5891 5891 5892 5892 5893 5893 5894 5894 5895 5895 5895 5894 5893 5892 5891 5891 5891 5892 5892 5892 5892 5892 5891 5890 5889 5889 5890 5890 5891 5890 5889 5888 5887 5886 5884 5884 5884 5883 5883 5881 5880 5877 5875 5874 5873 5871 5868 5868 5867 5865 5863 5861 5859 5856 5854 5851 5848 5847 5844 5842 5839 5836 5832 5830 5827 5823 5820 5817 5814 5811 5808 5804 5800 5797 5794 5790 5787 5784 5781 5777
5886 5886 5886 5887 5888 5889 5889 5889 5889 5890 5890 5890 5891 5891 5892 5892 5891 5890 5889 5887 5887 5888 5888 5888 5888 5887 5887 5886 5885 5885 5886 5887 5887 5887 5887 5886 5884 5883 5882 5879 5879 5880 5879 5877 5876 5875 5874 5872 5870 5869 5867 5864 5863 5862 5861 5859 5857 5855 5852 5850 5847 5845 5842 5840 5837 5835 5832 5829 5827 5823 5819 5816 5813 5810 5807 5804 5801 5797 5794 5790 5786 5783 5779 5775 5771